Stations météo

Publicité
Rennes, France (7130): Température de l'air & dewpoint: 14.09.2019 05:00:00 - 20.09.2019 05:00:00 (CEST)Rennes, France (7130): Température de l'air 5cm: 14.09.2019 05:00:00 - 20.09.2019 05:00:00 (CEST)Rennes, France (7130): Température de l'air -20cm & Température de l'air -100cm: 14.09.2019 05:00:00 - 20.09.2019 05:00:00 (CEST)Rennes, France (7130): Vitesse du vent & gusts: 14.09.2019 05:00:00 - 20.09.2019 05:00:00 (CEST)Rennes, France (7130): Direction du vent: 14.09.2019 05:00:00 - 20.09.2019 05:00:00 (CEST)Rennes, France (7130): reduced air pressure: 14.09.2019 05:00:00 - 20.09.2019 05:00:00 (CEST)Rennes, France (7130): visibility: 14.09.2019 05:00:00 - 20.09.2019 05:00:00 (CEST)Rennes, France (7130): Ensoleillement: 14.09.2019 05:00:00 - 20.09.2019 05:00:00 (CEST)Rennes, France (7130): Quantités de précipitations: 14.09.2019 05:00:00 - 20.09.2019 05:00:00 (CEST)
Date & Time tt [°C] td [°C] tt 5cm [°C] tt -20cm [°C] tt -100cm [°C] ff [km/h] ff [knt] fx [km/h] fx [knt] dd ppp [hPa] vv [km] sd [min] rr [mm]
20.09.2019 05:00:00 11,5 4,0 9,5 17,2 17,1 12 7 26 14 ENE 1023,0 60 0 0,0
20.09.2019 04:00:00 11,4 3,9 9,6 17,3 17,1 10 6 21 11 ENE 1023,6 60 0 0,0
20.09.2019 03:00:00 12,5 4,2 10,8 17,3 17,1 14 8 27 14 NE 1024,0 60 0 0,0
20.09.2019 02:00:00 13,7 4,0 12,6 17,4 17,1 17 9 29 16 NE 1024,3 60 0 0,0
20.09.2019 01:00:00 14,5 4,5 13,7 17,4 17,1 19 10 29 15 NE 1024,7 60 0 0,0
20.09.2019 00:00:00 15,1 4,7 14,3 17,5 17,1 18 10 29 16 NE 1025,2 60 0 0,0
19.09.2019 23:00:00 16,2 5,5 15,3 17,5 17,1 19 10 31 17 NE 1025,2 60 0 0,0
19.09.2019 22:00:00 17,4 5,7 16,6 17,5 17,1 19 11 34 19 NE 1024,9 60 0 0,0
19.09.2019 21:00:00 18,4 5,9 17,6 17,4 17,1 22 12 41 22 NE 1024,6 60 0 0,0
19.09.2019 20:00:00 19,8 5,4 19,3 17,3 17,1 24 13 46 25 NE 1024,1 56 48 0,0
19.09.2019 19:00:00 21,4 5,7 22,4 17,3 17,1 23 13 45 25 NE 1024,1 48 60 0,0
19.09.2019 18:00:00 22,1 6,3 23,7 17,2 17,1 29 15 46 25 NE 1024,1 33 60 0,0
19.09.2019 17:00:00 22,6 5,9 24,5 17,1 17,1 27 15 48 26 ENE 1024,4 34 60 0,0
19.09.2019 16:00:00 22,7 6,4 24,3 17,0 17,1 23 13 45 24 NE 1024,9 31 60 0,0
19.09.2019 15:00:00 21,5 6,2 23,7 16,9 17,1 24 13 47 25 NE 1025,7 31 60 0,0
19.09.2019 14:00:00 21,3 6,0 22,2 16,8 17,1 22 12 42 23 NE 1026,4 33 60 0,0
19.09.2019 13:00:00 19,8 5,4 21,1 16,9 17,1 26 14 46 25 ENE 1027,1 37 60 0,0
19.09.2019 12:00:00 19,0 5,1 19,7 16,9 17,1 29 15 45 25 ENE 1027,5 42 60 0,0
19.09.2019 11:00:00 17,3 6,5 16,4 17,0 17,1 25 13 41 22 ENE 1027,6 48 60 0,0
19.09.2019 10:00:00 14,3 6,9 12,9 17,0 17,1 22 12 33 18 NE 1027,5 42 60 0,0
19.09.2019 09:00:00 11,5 7,0 9,8 17,1 17,1 13 7 25 14 NNE 1026,9 35 41 0,0
19.09.2019 08:00:00 10,2 6,7 9,4 17,2 17,1 15 8 23 12 N 1026,8 45 0 0,0
19.09.2019 07:00:00 10,6 6,7 9,8 17,3 17,1 14 8 25 14 NNE 1026,5 45 0 0,0
19.09.2019 06:00:00 11,0 7,1 10,1 17,4 17,2 14 8 26 14 N 1026,6 48 0 0,0
19.09.2019 05:00:00 11,4 7,3 10,5 17,4 17,1 15 8 23 13 N 1026,7 48 0 0,0
19.09.2019 04:00:00 11,7 7,6 10,7 17,5 17,2 10 6 24 13 NNE 1026,8 45 0 0,0
19.09.2019 03:00:00 12,4 8,3 11,6 17,6 17,1 14 7 28 15 NNE 1026,9 44 0 0,0
19.09.2019 02:00:00 12,8 8,7 12,0 17,6 17,1 15 8 24 13 NNE 1026,9 41 0 0,0
19.09.2019 01:00:00 13,4 9,1 12,6 17,7 17,1 15 8 23 13 NNE 1026,8 39 0 0,0
19.09.2019 00:00:00 14,1 9,3 13,3 17,8 17,1 15 8 29 16 NNE 1026,7 39 0 0,0
18.09.2019 23:00:00 15,0 8,9 14,4 17,8 17,1 19 11 36 19 NNE 1026,1 38 0 0,0
18.09.2019 22:00:00 16,1 8,3 15,6 17,8 17,1 20 11 39 21 NNE 1025,5 43 0 0,0
18.09.2019 21:00:00 17,6 7,0 16,9 17,8 17,1 19 11 32 18 N 1024,8 57 0 0,0
18.09.2019 20:00:00 19,1 5,2 18,7 17,7 17,1 19 10 41 22 NNE 1024,0 60 50 0,0
18.09.2019 19:00:00 20,9 4,0 21,8 17,7 17,1 24 13 44 24 NE 1023,7 45 60 0,0
18.09.2019 18:00:00 21,7 3,4 23,3 17,6 17,1 25 14 49 26 NNE 1023,7 41 60 0,0
18.09.2019 17:00:00 21,8 2,5 24,0 17,5 17,1 27 15 46 25 NE 1023,9 32 60 0,0
18.09.2019 16:00:00 22,0 3,1 23,6 17,4 17,1 25 14 50 27 NE 1024,4 30 60 0,0
18.09.2019 15:00:00 21,4 3,6 22,6 17,4 17,2 27 15 46 25 NE 1024,6 29 60 0,0
18.09.2019 14:00:00 20,6 2,9 21,8 17,3 17,1 27 15 45 25 NNE 1024,9 29 60 0,0
18.09.2019 13:00:00 19,1 4,1 20,3 17,4 17,1 24 13 41 22 NE 1025,0 28 60 0,0
18.09.2019 12:00:00 18,1 6,3 18,0 17,4 17,1 24 13 40 21 NE 1025,4 29 60 0,0
18.09.2019 11:00:00 15,5 6,2 15,5 17,5 17,1 24 13 40 21 NE 1025,4 28 60 0,0
18.09.2019 10:00:00 13,6 6,7 13,2 17,6 17,1 21 11 33 18 NNE 1025,5 21 60 0,0
18.09.2019 09:00:00 11,9 7,2 10,3 17,7 17,1 13 7 27 14 NNE 1025,0 38 42 0,0
18.09.2019 08:00:00 10,8 6,9 10,3 17,8 17,1 16 8 29 16 N 1024,4 47 0 0,0
18.09.2019 07:00:00 11,7 7,4 10,9 17,9 17,1 19 11 33 18 NNE 1023,9 49 0 0,0
18.09.2019 06:00:00 12,1 8,2 11,5 18,0 17,1 20 11 38 20 NE 1023,7 46 0 0,0
18.09.2019 05:00:00 12,7 8,8 12,0 18,1 17,1 25 13 43 23 NE 1023,7 40 0 0,0
18.09.2019 04:00:00 12,9 9,5 11,2 18,2 17,1 18 10 29 16 NE 1023,7 30 0 0,0
18.09.2019 03:00:00 12,3 10,0 11,1 18,2 17,1 9 5 18 10 N 1023,5 21 0 0,0
18.09.2019 02:00:00 12,9 10,4 11,8 18,3 17,1 9 5 18 10 N 1023,1 19 0 0,0
18.09.2019 01:00:00 13,6 10,6 12,7 18,4 17,1 11 6 25 14 N 1023,2 21 0 0,0
18.09.2019 00:00:00 14,6 10,8 14,0 18,4 17,1 15 8 35 19 NNE 1023,2 23 0 0,0
17.09.2019 23:00:00 16,1 11,9 15,5 18,4 17,1 19 10 36 19 NNE 1022,7 34 0 0,0
17.09.2019 22:00:00 17,5 12,4 16,9 18,4 17,1 17 9 32 18 N 1022,2 47 0 0,0
17.09.2019 21:00:00 18,7 12,9 18,0 18,4 17,1 14 7 28 15 N 1021,6 52 0 0,0
17.09.2019 20:00:00 20,2 13,2 19,9 18,4 17,1 22 12 34 18 N 1021,3 55 44 0,0
17.09.2019 19:00:00 21,7 14,1 21,9 18,3 17,1 19 10 36 19 NNE 1021,2 47 41 0,0
17.09.2019 18:00:00 21,8 14,9 22,6 18,3 17,1 19 10 35 19 NNE 1021,3 32 7 0,0
17.09.2019 17:00:00 21,2 15,7 21,6 18,2 17,1 17 9 35 19 N 1021,6 51 13 0,0
17.09.2019 16:00:00 21,7 15,3 21,8 18,2 17,1 19 10 30 16 N 1021,7 28 4 0,0
17.09.2019 15:00:00 21,3 15,4 22,1 18,1 17,1 19 10 29 16 NNE 1021,8 40 0 0,0
17.09.2019 14:00:00 20,9 15,0 21,3 18,0 17,1 17 9 29 16 NNE 1022,2 49 0 0,0
17.09.2019 13:00:00 21,6 14,7 23,8 18,0 17,1 16 8 30 16 NNE 1022,2 54 34 0,0
17.09.2019 12:00:00 21,7 14,8 21,6 18,0 17,1 15 8 26 14 NE 1022,5 28 57 0,0
17.09.2019 11:00:00 19,2 14,5 18,3 18,0 17,1 13 7 21 11 NE 1022,9 45 14 0,0
17.09.2019 10:00:00 17,5 14,2 17,1 18,0 17,1 11 6 24 13 NE 1022,9 50 0 0,0
17.09.2019 09:00:00 16,7 14,0 16,4 18,1 17,1 16 9 23 13 NNE 1022,5 48 0 0,0
17.09.2019 08:00:00 16,4 13,9 16,3 18,1 17,1 12 6 23 12 N 1022,3 40 0 0,0
17.09.2019 07:00:00 16,4 13,9 16,3 18,1 17,1 15 8 24 13 N 1021,9 35 0 0,0
17.09.2019 06:00:00 16,5 14,1 16,3 18,2 17,1 11 6 23 12 N 1021,7 31 0 0,0
17.09.2019 05:00:00 16,4 14,2 16,4 18,2 17,1 10 6 23 13 N 1021,8 35 0 0,0
17.09.2019 04:00:00 16,9 14,5 16,7 18,2 17,1 13 7 21 12 N 1022,0 53 0 0,0
17.09.2019 03:00:00 16,7 14,5 16,6 18,3 17,1 13 7 27 15 N 1022,2 38 0 0,0
17.09.2019 02:00:00 16,7 14,7 16,6 18,3 17,1 17 9 29 16 N 1022,3 25 0 0,0
17.09.2019 01:00:00 16,7 14,7 16,5 18,3 17,1 15 8 26 14 NNW 1022,6 23 0 0,0
17.09.2019 00:00:00 16,6 14,4 16,2 18,3 17,1 16 9 29 16 NNW 1022,8 22 0 0,0
16.09.2019 23:00:00 16,3 14,1 15,7 18,4 17,1 16 9 32 17 NNW 1022,6 29 0 0,0
16.09.2019 22:00:00 16,2 14,2 15,7 18,4 17,1 16 9 27 15 NNW 1022,6 51 0 0,0
16.09.2019 21:00:00 16,5 14,1 16,1 18,3 17,1 18 10 32 17 NNW 1022,4 59 0 0,0
16.09.2019 20:00:00 17,9 13,8 18,1 18,2 17,1 21 12 33 18 NNW 1021,9 55 55 0,0
16.09.2019 19:00:00 20,8 14,4 22,3 18,1 17,1 24 13 37 20 NNW 1021,6 34 60 0,0
16.09.2019 18:00:00 24,1 13,6 26,6 18,0 17,1 22 12 33 18 NNW 1021,1 58 60 0,0
16.09.2019 17:00:00 26,3 11,2 28,3 17,8 17,1 14 8 27 15 NNW 1021,1 47 56 0,0
16.09.2019 16:00:00 26,4 7,4 29,7 17,7 17,0 12 7 30 16 N 1021,5 48 60 0,0
16.09.2019 15:00:00 25,8 7,4 28,4 17,6 17,1 13 7 29 16 N 1021,8 46 60 0,0
16.09.2019 14:00:00 24,2 9,4 26,1 17,6 17,1 14 8 26 14 N 1022,3 36 60 0,0
16.09.2019 13:00:00 21,6 12,7 18,7 17,6 17,1 12 6 25 13 N 1022,9 34 31 0,0
16.09.2019 12:00:00 19,3 13,5 21,2 17,6 17,0 16 9 24 13 NNW 1023,4 31 49 0,0
16.09.2019 11:00:00 18,2 13,9 16,6 17,6 17,0 7 4 22 12 NNW 1023,4 20 54 0,0
16.09.2019 10:00:00 16,0 14,5 13,9 17,7 17,1 16 9 26 14 NNW 1023,4 11 11 0,0
16.09.2019 09:00:00 13,3 13,1 11,7 17,8 17,0 7 4 11 6 WNW 1023,3 5 7 0,0
16.09.2019 08:00:00 12,0 11,8 10,4 17,9 17,1 7 4 10 5 W 1023,0 1,9 0 0,0
16.09.2019 07:00:00 11,2 11,0 8,3 18,0 17,0 7 4 10 5 W 1022,7 0,2 0 0,0
16.09.2019 06:00:00 11,5 11,3 8,6 18,1 17,0 7 4 9 5 W 1022,6 0,1 0 0,0
16.09.2019 05:00:00 12,0 11,8 8,4 18,2 17,0 6 3 8 4 W 1023,0 0,1 0 0,2
16.09.2019 04:00:00 12,2 11,9 8,9 18,3 17,0 4 2 9 5 W 1023,3 0,2 0 0,0
16.09.2019 03:00:00 12,7 12,4 9,6 18,4 17,0 6 3 10 6 WNW 1023,4 0,2 0 0,0
16.09.2019 02:00:00 12,9 12,4 9,4 18,5 17,0 7 4 10 5 WNW 1023,6 0,9 0 0,0
16.09.2019 01:00:00 13,6 12,5 10,7 18,6 17,0 5 3 12 7 W 1024,0 11 0 0,0
16.09.2019 00:00:00 13,7 12,1 11,6 18,6 17,0 9 5 16 9 NW 1024,1 22 0 0,0
15.09.2019 23:00:00 15,0 11,8 13,2 18,6 17,0 7 4 20 11 NW 1024,1 39 0 0,0
15.09.2019 22:00:00 16,7 12,0 16,0 18,6 17,0 13 7 30 16 NNW 1023,6 50 0 0,0
15.09.2019 21:00:00 18,9 13,1 18,2 18,5 17,0 18 10 29 16 NNW 1023,5 60 0 0,0
15.09.2019 20:00:00 22,1 13,7 22,2 18,4 17,0 16 9 29 15 NNW 1022,8 7 57 0,0
15.09.2019 19:00:00 24,6 14,4 26,5 18,3 17,0 18 10 28 15 NNW 1022,5 7 60 0,0
15.09.2019 18:00:00 26,0 14,5 29,3 18,2 17,0 17 9 29 16 NNW 1022,5 11 60 0,0
15.09.2019 17:00:00 26,9 15,3 30,1 18,0 17,0 18 10 29 16 NNW 1022,9 4,7 60 0,0
15.09.2019 16:00:00 26,2 15,0 30,6 17,8 17,0 16 9 29 16 NNW 1023,3 22 60 0,0
15.09.2019 15:00:00 26,5 15,8 30,8 17,7 17,0 14 8 29 15 NNW 1023,9 26 60 0,0
15.09.2019 14:00:00 25,5 14,9 29,6 17,6 17,0 10 5 28 15 NNW 1024,5 23 60 0,0
15.09.2019 13:00:00 24,7 14,2 27,0 17,6 17,0 8 4 18 10 NNW 1025,2 18 60 0,0
15.09.2019 12:00:00 22,2 14,8 23,8 17,6 17,0 8 4 18 10 N 1025,7 16 60 0,0
15.09.2019 11:00:00 19,5 14,9 20,9 17,6 17,0 12 7 21 12 NW 1026,0 11 60 0,0
15.09.2019 10:00:00 17,0 14,8 14,9 17,7 17,0 7 4 18 10 NW 1025,8 11 60 0,0
15.09.2019 09:00:00 13,8 13,6 10,4 17,8 17,0 7 4 11 6 WNW 1025,8 6 45 0,0
15.09.2019 08:00:00 11,9 11,6 9,3 17,9 17,0 5 3 10 6 W 1025,6 0,5 0 0,0
15.09.2019 07:00:00 12,5 12,2 9,6 18,0 17,0 7 4 9 5 W 1025,4 0,8 0 0,0
15.09.2019 06:00:00 12,5 12,2 9,7 18,1 17,0 7 4 9 5 WNW 1025,3 1,4 0 0,0
15.09.2019 05:00:00 13,3 12,8 10,4 18,2 16,9 5 3 9 5 W 1025,6 2,8 0 0,2
15.09.2019 04:00:00 13,7 13,1 10,7 18,3 17,0 8 4 11 6 NW 1025,9 6 0 0,0
15.09.2019 03:00:00 14,1 13,1 11,5 18,4 17,0 7 4 10 5 NW 1026,1 2,6 0 0,0
15.09.2019 02:00:00 15,6 14,5 11,9 18,5 17,0 6 4 9 5 WNW 1026,0 8 0 0,0
15.09.2019 01:00:00 15,9 14,6 12,8 18,5 17,0 8 4 9 5 NW 1026,2 6 0 0,0
15.09.2019 00:00:00 17,6 15,0 14,2 18,6 17,0 5 3 13 7 NW 1026,6 21 0 0,0
14.09.2019 23:00:00 17,3 14,2 15,3 18,5 17,0 6 3 14 8 NNW 1026,7 25 0 0,0
14.09.2019 22:00:00 19,9 15,3 18,5 18,5 17,0 11 6 21 12 NW 1026,5 33 0 0,0
14.09.2019 21:00:00 21,8 15,4 21,3 18,4 17,0 14 7 24 13 NNW 1026,3 45 0 0,0
14.09.2019 20:00:00 25,6 14,1 25,2 18,3 17,0 8 5 17 9 NNE 1026,0 59 60 0,0
14.09.2019 19:00:00 27,4 14,1 29,0 18,1 16,9 10 5 21 11 NE 1025,8 53 60 0,0
14.09.2019 18:00:00 27,8 14,1 30,0 18,0 17,0 10 6 23 13 ENE 1025,9 48 60 0,0
14.09.2019 17:00:00 27,2 14,6 30,1 17,8 17,0 14 8 37 20 NNE 1026,4 60 60 0,0
14.09.2019 16:00:00 26,9 15,0 29,1 17,7 16,9 13 7 29 16 NE 1027,1 38 60 0,0
14.09.2019 15:00:00 26,3 14,7 28,5 17,6 17,0 15 8 35 19 NE 1027,6 32 60 0,0
14.09.2019 14:00:00 25,6 15,0 27,3 17,5 17,0 14 8 32 17 ENE 1028,3 35 60 0,0
14.09.2019 13:00:00 23,6 14,9 24,5 17,4 16,9 16 9 29 16 ENE 1028,7 38 60 0,0
14.09.2019 12:00:00 21,9 15,0 22,0 17,4 16,9 17 9 27 15 NE 1029,6 39 60 0,0
14.09.2019 11:00:00 19,9 15,5 19,4 17,5 16,9 14 7 24 13 ENE 1030,0 13 60 0,0
14.09.2019 10:00:00 17,8 15,1 18,4 17,5 16,9 11 6 20 11 NE 1030,5 19 60 0,0
14.09.2019 09:00:00 16,3 14,7 14,7 17,6 16,9 8 4 17 9 NNE 1030,7 11 46 0,0
14.09.2019 08:00:00 14,7 13,9 13,5 17,7 16,9 11 6 18 10 N 1030,6 9 0 0,0
14.09.2019 07:00:00 14,2 13,6 13,0 17,7 16,9 9 5 14 8 N 1030,2 6 0 0,0
14.09.2019 06:00:00 14,8 14,3 13,8 17,8 16,9 10 5 14 7 N 1030,2 6 0 0,0
14.09.2019 05:00:00 14,8 14,2 13,6 17,8 16,9 8 4 14 7 NNE 1030,5 6 0 0,0

tt = Température de l'air
td = dewpoint
tt 5cm = Température de l'air 5cm
tt -20cm = Température de l'air -20cm
tt -100cm = Température de l'air -100cm
ff = Vitesse du vent
fx = gusts
dd = Direction du vent
ppp = reduced air pressure
vv = visibility
sd = Ensoleillement
rr = Quantités de précipitations

stations d'obs. à proximité